Wind_Speed
55 56 61 61 59 61 57 54 55 59 59 57 57 61 66 70 69 68 72 71 70 71 70 70 70 74 76 76 75 77 78 79 79 79 78 79 80 80 81 78 76 74 73 75
59 62 68 62 62 64 64 60 59 60 66 61 59 61 66 71 76 81 80 74 73 71 73 79 84 84 84 84 84 83 84 82 82 82 83 84 84 83 82 82 82 80 81 81
64 66 69 67 66 63 64 66 65 67 69 71 67 63 72 77 82 86 86 81 80 83 86 90 90 86 84 81 80 80 79 80 82 84 86 88 89 89 89 88 89 86 87 85
67 72 74 74 69 71 68 72 72 71 73 74 81 74 78 83 88 92 91 94 93 89 91 92 87 89 85 82 82 81 81 83 87 90 92 91 91 93 93 93 93 92 90 91
74 77 78 78 77 78 76 80 79 78 76 76 79 87 78 84 93 97 96 97 99 96 94 92 88 92 91 87 90 89 87 89 92 95 97 97 96 97 97 99 97 96 95 94
83 84 81 84 84 83 82 83 82 85 85 82 88 97 81 92 95 98 101 103 98 96 95 88 89 89 89 93 99 99 99 102 101 101 102 102 102 103 103 99 94 93 92 89
94 88 89 90 88 86 86 86 89 91 91 90 94 99 92 91 89 93 98 102 102 98 94 90 92 91 98 106 113 113 115 114 107 105 104 107 108 107 96 88 83 83 80 82
96 92 95 95 92 90 89 93 96 102 102 97 95 99 99 98 99 104 105 103 102 94 91 88 92 107 115 120 123 114 113 114 113 111 108 105 97 83 80 74 70 72 74 78
98 93 93 93 96 97 99 103 102 105 102 101 100 100 103 106 102 102 103 97 96 91 97 107 113 120 130 134 123 120 118 118 114 107 98 89 80 75 73 70 70 70 70 71
107 103 103 101 102 106 108 108 107 110 113 111 99 100 94 93 94 94 100 101 97 101 107 118 122 131 135 131 117 118 120 114 97 93 87 80 78 69 63 66 67 68 68 69
114 111 109 110 107 108 111 113 113 113 115 111 112 104 90 92 95 103 109 112 110 118 123 128 133 135 120 110 106 103 98 93 86 82 77 76 73 66 59 57 60 61 63 65
120 119 115 115 113 112 116 117 116 116 118 118 110 97 96 97 113 106 113 121 127 134 133 138 139 129 107 99 91 86 81 80 84 82 78 76 69 66 62 58 58 59 60 65
120 120 115 113 115 114 115 116 114 119 120 116 109 107 113 111 120 123 130 128 132 139 143 144 120 106 101 95 89 82 78 78 81 81 77 72 70 67 63 60 59 60 63 62
121 119 121 118 115 118 120 121 123 119 118 123 117 122 122 125 130 133 134 134 142 142 130 111 104 96 93 88 82 79 79 77 78 77 75 69 65 63 59 58 58 59 59 56
132 127 132 127 114 115 121 112 114 116 121 131 128 134 131 128 133 135 142 144 141 116 106 101 95 93 88 85 78 74 74 78 74 74 70 68 64 65 59 56 56 55 53 50
138 133 132 135 132 128 125 123 128 131 133 137 137 136 140 141 144 144 147 129 114 105 98 91 88 84 81 77 75 71 69 68 67 67 64 61 60 57 55 52 52 49 47 47
140 137 136 136 136 140 138 128 135 133 134 139 139 142 143 144 142 126 113 107 101 93 89 84 80 78 71 68 68 65 61 59 57 56 55 56 54 53 50 49 48 47 46 47
143 145 148 145 148 150 147 145 141 142 144 142 139 136 129 121 114 105 100 94 87 82 79 75 72 70 66 63 60 59 56 52 49 49 50 50 49 47 45 44 46 46 46 46
128 131 136 139 136 128 122 125 120 124 112 112 110 106 103 100 98 95 89 83 78 75 72 70 68 63 60 59 55 52 50 47 45 44 42 42 42 41 41 42 44 46 45 44
110 109 108 107 110 104 94 102 107 107 88 91 91 89 90 90 87 83 77 73 71 68 68 66 60 54 53 51 48 46 44 43 41 38 38 37 38 39 41 43 44 42 41 40
95 96 94 92 89 84 82 85 88 87 79 80 80 80 80 79 76 74 70 67 65 62 62 57 51 48 46 44 43 40 38 36 34 33 33 35 37 40 40 38 40 39 37 36
85 87 85 84 82 72 73 74 75 75 72 71 72 73 71 68 64 63 62 60 59 58 53 50 46 43 40 38 36 34 33 31 29 29 32 35 36 37 36 37 36 35 32 31
73 75 75 72 68 65 63 64 66 65 65 64 64 63 62 60 58 56 55 56 55 53 46 43 39 37 34 33 32 32 29 27 26 28 31 32 33 34 32 33 31 31 30 28
65 64 63 60 60 59 57 56 57 57 56 55 54 54 52 52 52 51 50 47 50 47 43 38 35 33 30 29 29 28 26 25 25 26 30 31 30 32 32 30 30 28 27 26
59 57 53 50 56 52 51 52 51 48 49 48 47 48 49 49 49 49 44 43 42 40 37 34 31 29 27 28 27 26 25 24 24 27 28 30 31 28 28 28 28 27 26 24
58 55 49 48 50 46 48 47 41 43 44 45 45 45 45 45 44 43 39 38 37 36 33 32 30 29 26 28 27 25 24 25 25 27 29 27 29 31 28 26 26 27 28 27
Wind_Direction
286 288 288 282 286 286 285 286 281 283 283 281 283 288 287 285 286 290 292 294 295 295 296 295 291 289 287 288 288 289 288 287 288 287 286 286 286 286 285 283 282 279 278 279
285 289 285 291 286 286 284 287 286 288 286 285 286 289 291 290 291 291 289 294 295 293 292 294 293 292 291 289 288 289 288 285 284 284 284 286 287 286 284 282 281 278 278 276
285 287 288 289 289 285 286 284 286 287 290 292 289 288 289 291 291 290 293 294 293 293 290 292 295 293 292 290 289 289 286 285 286 287 288 288 287 285 284 282 280 279 279 276
284 285 285 288 290 288 288 287 286 286 287 288 292 288 292 292 291 292 292 295 295 294 295 297 294 292 291 290 288 286 287 288 287 287 287 287 285 284 284 281 278 277 276 276
284 282 284 285 286 286 286 286 286 285 285 284 284 283 284 289 292 293 293 293 293 294 295 298 294 293 294 295 292 287 286 286 287 287 287 287 288 291 289 285 280 278 277 275
281 280 282 285 284 283 284 283 282 283 285 285 285 284 287 287 286 287 287 289 290 292 294 294 295 299 298 301 301 301 299 296 294 293 292 291 292 293 291 287 282 280 277 273
280 284 283 283 283 284 284 283 281 283 283 284 284 286 290 287 288 287 287 288 290 293 292 298 293 299 297 298 299 297 297 297 296 294 293 293 293 291 287 284 281 278 275 273
279 281 282 283 283 281 281 281 285 285 284 284 285 286 285 285 287 288 289 289 290 290 298 299 297 299 299 299 302 299 296 297 297 295 292 290 290 290 287 283 280 277 274 273
279 281 279 278 279 280 283 285 282 282 284 283 284 286 287 290 289 287 290 293 293 297 296 296 297 298 299 299 299 294 296 296 295 294 293 292 291 290 287 283 280 278 275 273
278 277 277 278 278 281 282 282 284 287 290 291 289 288 290 292 288 295 301 297 295 294 295 296 296 300 299 299 297 296 295 295 294 293 291 292 289 288 285 286 280 278 276 275
279 278 279 278 279 280 280 281 282 285 290 292 291 292 288 297 295 292 292 293 294 293 294 295 297 301 299 296 294 294 294 294 291 291 290 294 294 294 290 283 279 276 276 275
276 276 277 279 280 280 281 283 284 284 289 293 294 293 289 285 291 287 288 289 292 295 296 299 299 299 295 295 293 293 294 294 294 294 295 293 293 294 291 284 277 275 273 274
274 275 275 277 280 281 280 283 284 286 289 296 288 288 284 282 287 289 288 291 293 295 296 298 299 298 299 298 296 294 290 288 289 289 290 293 294 293 289 283 278 275 273 275
273 275 278 277 276 277 278 279 281 285 288 291 285 285 289 287 286 289 292 294 296 298 298 296 295 294 293 294 294 293 290 287 286 288 291 293 291 289 285 283 278 275 275 275
271 268 269 275 275 276 278 280 281 281 283 284 284 286 290 287 286 290 294 294 297 295 294 293 293 292 293 293 291 289 287 287 288 289 291 292 291 286 284 280 280 279 276 275
269 269 269 273 272 274 271 274 276 276 278 281 284 285 286 287 285 289 293 291 290 290 292 291 291 290 289 288 287 286 286 283 283 286 287 284 284 283 282 283 281 281 279 275
268 268 270 272 269 271 276 276 274 276 279 279 280 281 283 284 286 288 286 288 290 290 291 289 288 286 287 286 286 286 285 286 286 283 280 282 285 284 286 285 285 283 279 273
267 271 272 272 274 274 277 278 277 277 277 278 281 282 285 283 285 286 286 287 287 287 287 287 287 287 288 286 286 285 285 285 282 280 279 282 285 286 285 287 283 280 276 272
268 271 272 271 270 273 275 275 275 275 277 280 281 281 282 282 282 283 284 285 285 286 286 286 285 286 287 287 285 284 285 284 282 281 283 284 285 288 287 285 283 280 279 278
268 269 267 270 272 272 276 275 275 276 281 278 279 280 279 279 281 283 284 283 283 284 282 281 284 286 284 282 281 280 281 283 286 288 287 289 289 288 289 287 286 287 283 280
267 269 272 273 273 274 273 271 272 276 276 278 276 276 277 278 279 281 283 283 283 281 279 283 284 283 280 278 276 278 282 282 283 285 288 289 291 291 291 292 292 290 289 285
265 267 269 269 271 272 270 270 271 272 273 272 273 275 276 277 279 280 281 280 278 278 283 283 283 281 277 275 275 275 274 276 283 289 290 292 296 295 298 298 299 299 295 290
262 263 265 269 270 270 268 266 265 267 268 270 272 273 274 276 280 279 276 275 276 279 278 277 275 271 268 269 267 267 271 277 283 290 296 299 300 301 305 305 303 299 295 291
263 264 266 268 269 269 268 268 268 269 270 271 273 275 277 276 275 274 275 275 273 275 273 272 266 262 261 261 262 265 269 277 288 297 305 304 303 307 308 304 301 298 294 289
266 268 268 269 267 269 269 269 270 271 273 273 272 271 271 273 272 274 276 274 272 270 269 263 256 257 255 256 259 263 271 282 289 301 308 310 306 304 308 303 303 300 292 291
266 264 265 264 265 266 265 266 269 268 266 267 268 269 269 270 272 272 271 270 268 265 262 254 249 249 248 255 257 264 273 281 289 298 305 313 311 309 311 309 307 301 290 289
Height
10700 10698 10694 10695 10700 10698 10698 10698 10696 10686 10685 10690 10694 10694 10686 10683 10680 10680 10678 10682 10685 10680 10675 10668 10661 10655 10648 10644 10639 10634 10630 10623 10618 10613 10609 10607 10605 10602 10597 10594 10590 10587 10587 10587
10682 10684 10679 10683 10684 10684 10682 10682 10681 10676 10667 10675 10678 10680 10672 10663 10656 10651 10661 10670 10670 10666 10659 10650 10642 10635 10631 10626 10620 10614 10609 10604 10599 10596 10592 10588 10583 10580 10577 10574 10570 10567 10563 10561
10668 10669 10664 10667 10666 10668 10668 10666 10664 10663 10657 10651 10659 10666 10656 10649 10640 10632 10632 10645 10649 10648 10639 10630 10621 10611 10609 10604 10598 10593 10589 10583 10579 10573 10568 10565 10560 10557 10553 10549 10546 10543 10539 10537
10657 10652 10651 10652 10654 10649 10652 10645 10647 10648 10646 10645 10632 10647 10640 10626 10619 10612 10615 10613 10614 10613 10610 10604 10596 10588 10587 10584 10578 10575 10569 10564 10557 10551 10544 10539 10534 10528 10524 10521 10518 10516 10513 10510
10642 10639 10632 10637 10639 10634 10637 10630 10626 10627 10630 10629 10628 10614 10637 10620 10605 10592 10594 10590 10589 10589 10586 10582 10573 10563 10562 10561 10555 10551 10545 10538 10533 10526 10518 10510 10504 10498 10491 10487 10485 10483 10482 10480
10621 10616 10623 10618 10617 10617 10617 10615 10609 10605 10603 10611 10605 10586 10622 10600 10595 10588 10582 10576 10573 10570 10567 10560 10550 10541 10534 10533 10525 10522 10518 10511 10504 10497 10490 10481 10475 10467 10460 10453 10448 10447 10447 10447
10590 10603 10601 10601 10600 10594 10593 10591 10588 10586 10586 10593 10586 10569 10582 10573 10574 10565 10555 10553 10554 10550 10544 10534 10527 10519 10510 10505 10501 10494 10487 10480 10473 10468 10460 10450 10444 10437 10430 10424 10419 10417 10416 10416
10574 10583 10579 10576 10582 10576 10573 10568 10566 10555 10558 10569 10569 10563 10556 10552 10549 10538 10530 10529 10527 10526 10523 10515 10508 10501 10487 10475 10474 10462 10452 10449 10442 10436 10430 10423 10415 10410 10403 10397 10394 10392 10390 10389
10548 10566 10556 10557 10553 10552 10555 10551 10543 10535 10539 10541 10546 10541 10529 10524 10518 10513 10506 10500 10498 10496 10496 10494 10488 10481 10465 10447 10445 10430 10423 10417 10410 10400 10395 10393 10390 10386 10382 10376 10371 10369 10367 10365
10524 10538 10535 10536 10532 10532 10526 10521 10517 10510 10509 10512 10523 10522 10507 10495 10488 10486 10480 10472 10470 10472 10469 10466 10460 10453 10435 10417 10409 10400 10390 10385 10382 10372 10369 10370 10368 10365 10361 10355 10351 10348 10346 10344
10497 10504 10512 10504 10509 10507 10499 10495 10493 10489 10485 10490 10490 10495 10488 10478 10466 10463 10451 10445 10457 10454 10446 10440 10434 10420 10407 10396 10383 10377 10367 10361 10355 10351 10348 10343 10342 10341 10338 10335 10332 10328 10325 10322
10472 10477 10485 10472 10477 10478 10472 10472 10464 10463 10464 10459 10458 10471 10466 10458 10450 10439 10436 10435 10431 10426 10419 10410 10397 10385 10378 10368 10360 10353 10347 10338 10327 10323 10323 10321 10321 10319 10317 10313 10311 10307 10303 10301
10449 10446 10458 10460 10451 10448 10446 10447 10443 10444 10441 10442 10430 10438 10438 10438 10425 10417 10405 10416 10403 10390 10383 10374 10364 10351 10341 10337 10332 10329 10325 10317 10309 10305 10305 10301 10298 10298 10296 10292 10290 10286 10284 10283
10420 10422 10422 10437 10438 10429 10421 10419 10425 10422 10417 10411 10405 10401 10414 10407 10386 10379 10378 10382 10364 10362 10353 10346 10341 10334 10325 10315 10311 10308 10301 10297 10293 10287 10284 10284 10282 10277 10275 10272 10271 10268 10266 10264
10395 10403 10399 10404 10409 10401 10396 10396 10400 10394 10389 10377 10381 10378 10386 10372 10357 10358 10354 10347 10344 10331 10325 10322 10318 10309 10301 10295 10291 10288 10282 10275 10272 10268 10267 10265 10260 10259 10257 10255 10251 10249 10247 10246
10365 10368 10375 10380 10378 10375 10373 10397 10389 10375 10362 10353 10350 10355 10350 10340 10337 10337 10334 10321 10313 10309 10305 10301 10297 10291 10284 10277 10271 10268 10265 10261 10258 10253 10251 10249 10246 10242 10240 10236 10234 10231 10230 10230
10340 10338 10340 10344 10340 10340 10346 10373 10349 10352 10346 10331 10328 10330 10326 10315 10314 10310 10305 10299 10293 10287 10283 10278 10272 10266 10265 10259 10253 10249 10246 10244 10240 10237 10234 10232 10229 10227 10224 10221 10218 10216 10215 10215
10314 10311 10310 10313 10308 10306 10331 10326 10320 10318 10305 10302 10304 10304 10296 10287 10282 10279 10276 10276 10273 10266 10261 10256 10253 10248 10244 10241 10237 10233 10231 10229 10225 10222 10219 10217 10215 10212 10210 10206 10204 10202 10200 10198
10280 10276 10275 10274 10274 10288 10300 10292 10284 10266 10284 10281 10278 10273 10268 10261 10258 10258 10256 10254 10250 10247 10243 10239 10236 10232 10227 10223 10220 10217 10215 10213 10211 10209 10207 10205 10203 10199 10197 10194 10190 10187 10185 10185
10242 10243 10244 10246 10252 10260 10275 10261 10245 10238 10269 10255 10250 10250 10244 10239 10238 10235 10238 10235 10233 10231 10225 10221 10219 10216 10211 10208 10205 10203 10202 10200 10198 10196 10196 10193 10190 10188 10185 10182 10177 10174 10171 10169
10214 10214 10219 10224 10227 10241 10243 10234 10224 10226 10240 10231 10228 10225 10222 10221 10219 10219 10217 10216 10214 10211 10206 10205 10204 10202 10198 10196 10194 10193 10191 10189 10189 10188 10186 10184 10181 10178 10173 10170 10165 10161 10158 10156
10198 10196 10201 10201 10204 10220 10214 10211 10208 10206 10209 10210 10206 10203 10203 10205 10205 10203 10200 10198 10195 10192 10190 10189 10188 10187 10185 10184 10183 10182 10182 10182 10180 10179 10178 10175 10171 10166 10163 10158 10154 10149 10147 10145
10180 10180 10182 10183 10189 10191 10193 10192 10189 10189 10190 10190 10190 10189 10188 10188 10187 10186 10184 10181 10178 10176 10177 10176 10176 10174 10174 10175 10175 10174 10174 10173 10173 10171 10168 10165 10161 10156 10153 10147 10144 10141 10138 10137
10158 10162 10165 10168 10167 10168 10171 10173 10173 10173 10173 10173 10175 10174 10173 10172 10170 10170 10169 10167 10163 10162 10163 10165 10164 10164 10165 10166 10166 10166 10166 10165 10164 10162 10159 10156 10152 10148 10144 10140 10137 10134 10132 10131
10139 10144 10149 10153 10146 10153 10155 10155 10156 10160 10159 10159 10160 10159 10158 10157 10155 10155 10155 10153 10151 10150 10152 10153 10153 10153 10155 10157 10158 10158 10158 10157 10155 10153 10151 10147 10143 10141 10137 10134 10131 10128 10127 10125
10122 10125 10132 10134 10131 10139 10138 10140 10145 10146 10146 10145 10146 10145 10144 10143 10143 10142 10141 10141 10140 10140 10142 10142 10143 10145 10148 10149 10150 10150 10149 10148 10147 10146 10143 10141 10137 10132 10130 10128 10126 10124 10122 10119